• In Germany
  • List of Countries
  • For 7 days
  • Water Temperature
  • Satellite Maps
  • Weather Map
  • Weather Widgets
  • user-avatar
    Login

    Hourly Weather Akka

    Today, 23 October, Tuesday

    Time Temperature Precipitation Wind Pressure Humidity
    00:00 +28°C° 0.1 mm 4 mps 759 mmHg 37%
    01:00 +28°C° 0.1 mm 4 mps 759 mmHg 40%
    02:00 +28°C° 0 mm 3 mps 758 mmHg 40%
    03:00 +27°C° 0 mm 4 mps 758 mmHg 40%
    04:00 +27°C° 0 mm 4 mps 758 mmHg 41%
    05:00 +27°C° 0 mm 4 mps 758 mmHg 41%
    06:00 +28°C° 0 mm 4 mps 758 mmHg 38%
    07:00 +29°C° 0 mm 4 mps 758 mmHg 35%
    08:00 +30°C° 0 mm 5 mps 759 mmHg 32%
    09:00 +33°C° 0 mm 5 mps 758 mmHg 28%
    10:00 +34°C° 0 mm 5 mps 758 mmHg 25%
    11:00 +36°C° 0 mm 5 mps 758 mmHg 22%
    12:00 +36°C° 0 mm 5 mps 758 mmHg 23%
    13:00 +36°C° 0 mm 5 mps 758 mmHg 24%
    14:00 +36°C° 0 mm 5 mps 758 mmHg 26%
    15:00 +34°C° 0 mm 4 mps 757 mmHg 31%
    16:00 +33°C° 0 mm 3 mps 757 mmHg 36%
    17:00 +31°C° 0 mm 3 mps 757 mmHg 41%
    18:00 +30°C° 0 mm 2 mps 757 mmHg 42%
    19:00 +30°C° 0 mm 2 mps 758 mmHg 42%
    20:00 +29°C° 0 mm 2 mps 758 mmHg 43%
    21:00 +29°C° 0 mm 2 mps 758 mmHg 42%
    22:00 +28°C° 0 mm 2 mps 758 mmHg 41%
    23:00 +28°C° 0 mm 2 mps 757 mmHg 40%

    Tomorrow, 24 October, Wednesday

    Time Temperature Precipitation Wind Pressure Humidity
    00:00 +28°C° 0 mm 2 mps 757 mmHg 39%
    01:00 +28°C° 0 mm 2 mps 757 mmHg 39%
    02:00 +27°C° 0 mm 2 mps 757 mmHg 38%
    03:00 +28°C° 0 mm 2 mps 757 mmHg 37%
    04:00 +28°C° 0 mm 2 mps 756 mmHg 37%
    05:00 +28°C° 0 mm 3 mps 756 mmHg 36%
    06:00 +29°C° 0 mm 3 mps 756 mmHg 35%
    07:00 +29°C° 0 mm 3 mps 756 mmHg 33%
    08:00 +30°C° 0 mm 4 mps 757 mmHg 31%
    09:00 +33°C° 0 mm 4 mps 756 mmHg 29%
    10:00 +34°C° 0 mm 4 mps 756 mmHg 26%
    11:00 +35°C° 0 mm 4 mps 756 mmHg 23%
    12:00 +35°C° 0 mm 5 mps 756 mmHg 25%
    13:00 +35°C° 0 mm 5 mps 755 mmHg 26%
    14:00 +35°C° 0 mm 5 mps 755 mmHg 28%
    15:00 +34°C° 0 mm 4 mps 755 mmHg 34%
    16:00 +31°C° 0 mm 3 mps 755 mmHg 39%
    17:00 +30°C° 0 mm 2 mps 755 mmHg 45%
    18:00 +29°C° 0 mm 2 mps 755 mmHg 49%
    19:00 +28°C° 0 mm 2 mps 755 mmHg 53%
    20:00 +27°C° 0 mm 2 mps 755 mmHg 57%
    21:00 +27°C° 0 mm 2 mps 755 mmHg 57%
    22:00 +27°C° 0 mm 1 mps 755 mmHg 58%
    23:00 +26°C° 0 mm 1 mps 755 mmHg 58%

    Day after tomorrow, 25 October, Thursday

    Time Temperature Precipitation Wind Pressure Humidity
    00:00 +26°C° 0.4 mm 3 mps 755 mmHg 58%
    01:00 +26°C° 0.4 mm 4 mps 755 mmHg 58%
    02:00 +26°C° 0.4 mm 6 mps 755 mmHg 58%
    03:00 +25°C° 0.3 mm 5 mps 755 mmHg 63%
    04:00 +23°C° 0.3 mm 5 mps 755 mmHg 69%
    05:00 +22°C° 0.3 mm 4 mps 754 mmHg 75%
    06:00 +23°C° 1 mm 4 mps 755 mmHg 72%
    07:00 +24°C° 1 mm 3 mps 755 mmHg 69%
    08:00 +24°C° 1 mm 3 mps 755 mmHg 66%
    09:00 +26°C° 0.5 mm 3 mps 755 mmHg 60%
    10:00 +27°C° 0.5 mm 3 mps 755 mmHg 54%
    11:00 +29°C° 0.5 mm 3 mps 755 mmHg 48%
    12:00 +29°C° 0.4 mm 4 mps 755 mmHg 50%
    13:00 +29°C° 0.4 mm 5 mps 754 mmHg 52%
    14:00 +29°C° 0.4 mm 6 mps 754 mmHg 55%
    15:00 +27°C° 0.8 mm 6 mps 754 mmHg 61%
    16:00 +26°C° 0.8 mm 6 mps 754 mmHg 67%
    17:00 +24°C° 0.8 mm 7 mps 754 mmHg 73%
    18:00 +24°C° 0.8 mm 7 mps 755 mmHg 73%
    19:00 +24°C° 0.8 mm 7 mps 755 mmHg 74%
    20:00 +23°C° 0.8 mm 7 mps 756 mmHg 74%
    21:00 +23°C° 0.7 mm 7 mps 756 mmHg 74%
    22:00 +23°C° 0.7 mm 7 mps 756 mmHg 75%
    23:00 +23°C° 0.7 mm 8 mps 756 mmHg 75%

    26 October, Friday

    Time Temperature Precipitation Wind Pressure Humidity
    00:00 +22°C° 0.3 mm 8 mps 757 mmHg 74%
    01:00 +22°C° 0.3 mm 8 mps 757 mmHg 73%
    02:00 +22°C° 0.3 mm 9 mps 757 mmHg 72%
    03:00 +22°C° 0 mm 8 mps 757 mmHg 70%
    04:00 +21°C° 0 mm 7 mps 758 mmHg 68%
    05:00 +20°C° 0 mm 6 mps 758 mmHg 66%
    06:00 +21°C° 0 mm 6 mps 759 mmHg 64%
    07:00 +22°C° 0 mm 5 mps 759 mmHg 62%
    08:00 +22°C° 0 mm 5 mps 760 mmHg 60%
    09:00 +23°C° 0 mm 5 mps 760 mmHg 57%
    10:00 +23°C° 0 mm 5 mps 761 mmHg 53%
    11:00 +25°C° 0 mm 5 mps 761 mmHg 49%
    12:00 +25°C° 0 mm 5 mps 761 mmHg 48%
    13:00 +25°C° 0 mm 5 mps 761 mmHg 46%
    14:00 +25°C° 0 mm 4 mps 761 mmHg 44%
    15:00 +23°C° 0 mm 4 mps 761 mmHg 46%
    16:00 +22°C° 0 mm 4 mps 762 mmHg 47%
    17:00 +22°C° 0 mm 4 mps 762 mmHg 49%
    18:00 +21°C° 0 mm 4 mps 763 mmHg 49%
    19:00 +21°C° 0 mm 3 mps 763 mmHg 49%
    20:00 +20°C° 0 mm 3 mps 764 mmHg 50%
    21:00 +20°C° 0 mm 3 mps 764 mmHg 50%
    22:00 +20°C° 0 mm 3 mps 764 mmHg 50%
    23:00 +20°C° 0 mm 3 mps 764 mmHg 51%

    27 October, Saturday

    Time Temperature Precipitation Wind Pressure Humidity
    00:00 +19°C° 0 mm 3 mps 764 mmHg 51%
    01:00 +19°C° 0 mm 3 mps 764 mmHg 52%
    02:00 +19°C° 0 mm 3 mps 764 mmHg 53%
    03:00 +19°C° 0 mm 3 mps 764 mmHg 53%
    04:00 +18°C° 0 mm 3 mps 764 mmHg 53%
    05:00 +18°C° 0 mm 3 mps 765 mmHg 52%
    06:00 +19°C° 0 mm 3 mps 765 mmHg 48%
    07:00 +20°C° 0 mm 3 mps 765 mmHg 44%
    08:00 +21°C° 0 mm 3 mps 765 mmHg 40%
    09:00 +24°C° 0 mm 3 mps 765 mmHg 36%
    10:00 +25°C° 0 mm 3 mps 765 mmHg 31%
    11:00 +27°C° 0 mm 3 mps 765 mmHg 27%
    12:00 +27°C° 0 mm 3 mps 764 mmHg 25%
    13:00 +28°C° 0 mm 3 mps 764 mmHg 24%
    14:00 +29°C° 0 mm 4 mps 763 mmHg 22%
    15:00 +28°C° 0 mm 4 mps 763 mmHg 27%
    16:00 +27°C° 0 mm 5 mps 763 mmHg 32%
    17:00 +26°C° 0 mm 5 mps 763 mmHg 37%
    18:00 +25°C° 0 mm 5 mps 764 mmHg 38%
    19:00 +23°C° 0 mm 5 mps 764 mmHg 39%
    20:00 +23°C° 0 mm 5 mps 764 mmHg 40%
    21:00 +23°C° 0 mm 5 mps 764 mmHg 37%
    22:00 +23°C° 0 mm 4 mps 764 mmHg 34%
    23:00 +22°C° 0 mm 4 mps 764 mmHg 31%

    28 October, Sunday

    Time Temperature Precipitation Wind Pressure Humidity
    00:00 +22°C° 0 mm 4 mps 763 mmHg 31%
    01:00 +22°C° 0 mm 4 mps 763 mmHg 31%
    02:00 +22°C° 0 mm 4 mps 763 mmHg 30%
    03:00 +21°C° 0 mm 4 mps 763 mmHg 30%
    04:00 +21°C° 0 mm 5 mps 763 mmHg 29%
    05:00 +21°C° 0 mm 5 mps 763 mmHg 29%
    06:00 +22°C° 0 mm 5 mps 763 mmHg 27%
    07:00 +23°C° 0 mm 5 mps 763 mmHg 26%
    08:00 +24°C° 0 mm 6 mps 764 mmHg 24%
    09:00 +27°C° 0 mm 6 mps 763 mmHg 23%
    10:00 +28°C° 0 mm 6 mps 763 mmHg 22%
    11:00 +30°C° 0 mm 6 mps 763 mmHg 21%
    12:00 +30°C° 0 mm 5 mps 762 mmHg 20%
    13:00 +32°C° 0 mm 5 mps 762 mmHg 20%
    14:00 +32°C° 0 mm 5 mps 761 mmHg 19%
    15:00 +30°C° 0 mm 5 mps 761 mmHg 21%
    16:00 +29°C° 0 mm 5 mps 761 mmHg 23%
    17:00 +28°C° 0 mm 5 mps 761 mmHg 25%
    18:00 +27°C° 0 mm 5 mps 761 mmHg 24%
    19:00 +27°C° 0 mm 5 mps 761 mmHg 24%
    20:00 +26°C° 0 mm 5 mps 761 mmHg 24%
    21:00 +26°C° 0 mm 5 mps 761 mmHg 23%
    22:00 +24°C° 0 mm 6 mps 761 mmHg 23%
    23:00 +24°C° 0 mm 6 mps 761 mmHg 22%

    29 October, Monday

    Time Temperature Precipitation Wind Pressure Humidity
    00:00 +23°C° 0 mm 6 mps 761 mmHg 21%
    01:00 +23°C° 0 mm 6 mps 760 mmHg 21%
    02:00 +22°C° 0 mm 6 mps 760 mmHg 20%
    03:00 +22°C° 0 mm 6 mps 760 mmHg 20%
    04:00 +22°C° 0 mm 6 mps 760 mmHg 21%
    05:00 +21°C° 0 mm 6 mps 760 mmHg 21%
    06:00 +22°C° 0 mm 6 mps 760 mmHg 20%
    07:00 +23°C° 0 mm 7 mps 760 mmHg 20%
    08:00 +24°C° 0 mm 7 mps 761 mmHg 20%
    09:00 +27°C° 0 mm 6 mps 760 mmHg 19%
    10:00 +28°C° 0 mm 6 mps 760 mmHg 19%
    11:00 +30°C° 0 mm 5 mps 760 mmHg 19%
    12:00 +30°C° 0 mm 5 mps 760 mmHg 20%
    13:00 +32°C° 0 mm 5 mps 759 mmHg 20%
    14:00 +33°C° 0 mm 5 mps 759 mmHg 21%
    15:00 +30°C° 0 mm 5 mps 759 mmHg 23%
    16:00 +29°C° 0 mm 5 mps 759 mmHg 26%
    17:00 +28°C° 0 mm 5 mps 759 mmHg 29%
    18:00 +28°C° 0 mm 4 mps 759 mmHg 28%
    19:00 +27°C° 0 mm 4 mps 759 mmHg 27%
    20:00 +27°C° 0 mm 4 mps 759 mmHg 27%
    21:00 +26°C° 0 mm 4 mps 760 mmHg 25%
    22:00 +26°C° 0 mm 4 mps 760 mmHg 24%
    23:00 +26°C° 0 mm 4 mps 760 mmHg 23%
    Show more